STARLINK-37592, 69025

Orbit data source: Space-Track

STARLINK-37592, 69025 is a payload satellite owned by SpaceX/Seattle (US) in SSO that was launched on Wed, 06 May 2026 UTC via an FALCON 9 launch vehicle from the Air Force Western Test Range (AFWTR). Payload-class satellites include a variety of spacecraft equipped with specific instruments for various scientific and technological missions. These include communications satellites like Starlink; space stations such as the ISS; scientific satellites like the Hubble; Earth observation satellites from companies like Planet Labs, Umbra, and HawkEye 360; GPS; miniature CubeSats for education and research; and military/defense satellites.

Loading next visibility...
Identifier
69025, 2026-101A
Orbit
SSO
Country
Flag of USUS
Related business
Manufacturer
SpaceX/Seattle
Mission
Operational Commercial Communications
Bus & Motor
STARLINK V2MO, Unknown motor
Mass
575 kg wet, ~530 kg dry
Launch date (UTC)
2026-05-06 (3 months ago)
Launch vehicle
FALCON 9
Launch site
Air Force Western Test Range (AFWTR)
Object type
Payload
Rocket body
Debris
Shape & HBR
Box + 2 Pan, 17.7 m
Radar Cross Section
36.964 m², Large (>1 m²)

Expand to show TLE details & history
Last TLE update: 19 hours ago

TLE from 19 hours ago
0 STARLINK-37592
1 69025U 26101A   26206.32723425  .00022088  00000-0  68463-3 0  9996
2 69025  97.2866  60.5704 0001606  92.5642 267.5785 15.33438909 12418
Epoch: 2026-07-25T07:51Z
TLE epoch observation values (Epoch: 2026-07-25T07:51:13.039Z)
Latitude
0.00003°
Longitude
-0.27504°
Altitude
468.72 km
Speed
7.632 km/s
True Right ascension
04h 02m 16s
True Declination
0° 00' 00"
Sunlit
Object was in daylight at epoch
Visualization orbit readout
Latitude
Unknown
Longitude
Unknown
Altitude
Unknown
Speed
Unknown
Apparent Right ascension
Unknown
Apparent Declination
Unknown
Sunlit
N/A
Visualization observer readout
Local Sidereal Time
16:19:29
Azimuth
Unknown
Elevation
Unknown
Doppler factor
Unknown
Orbital elements
Apogee altitude
463.603 km
Perigee altitude
461.406 km
Semi-major axis
6,840.641 km
Eccentricity
0.00016
Inclination
97.2866°
RAAN
60.5704°
Arg. of periapsis
92.5642°
True anomaly
267.56011°
Mean anomaly
267.5785°
Eccentric anomaly
267.56931°
Mean motion
3.83617 °/min
Orbital period
93.84 mins
BSTAR
0.00068463
Loading maneuver chart data...
Computing Atmospheric mass density...
Loading historical data...
Loading historical data...
Loading historical data...
Loading historical data...
Loading historical data...
Loading historical data...
Loading historical data...

Documentation

Showing up to 5 results
|